• In Germany
  • List of Countries
  • For 7 days
  • Water Temperature
  • Satellite Maps
  • Weather Map
  • Weather Widgets
  • user-avatar
    Login

    Hourly Weather Belize

    Today, 21 August, Monday

    Time Temperature Precipitation Wind Pressure Humidity
    00:00 +26°C° 1.3 mm 3 mps 759 mmHg 97%
    01:00 +26°C° 0.4 mm 3 mps 759 mmHg 98%
    02:00 +26°C° 0.4 mm 2 mps 758 mmHg 98%
    03:00 +26°C° 0.4 mm 2 mps 758 mmHg 98%
    04:00 +26°C° 0.2 mm 2 mps 758 mmHg 99%
    05:00 +26°C° 0.2 mm 2 mps 759 mmHg 99%
    06:00 +26°C° 0.2 mm 2 mps 759 mmHg 99%
    07:00 +28°C° 0.1 mm 1 mps 759 mmHg 92%
    08:00 +29°C° 0.1 mm 1 mps 759 mmHg 85%
    09:00 +29°C° 0.1 mm 0 mps 760 mmHg 78%
    10:00 +33°C° 0 mm 1 mps 759 mmHg 69%
    11:00 +34°C° 0 mm 1 mps 759 mmHg 60%
    12:00 +35°C° 0 mm 1 mps 759 mmHg 52%
    13:00 +36°C° 0.2 mm 2 mps 758 mmHg 51%
    14:00 +36°C° 0.2 mm 2 mps 758 mmHg 51%
    15:00 +36°C° 0.2 mm 2 mps 757 mmHg 51%
    16:00 +34°C° 0.1 mm 3 mps 757 mmHg 62%
    17:00 +31°C° 0.1 mm 3 mps 757 mmHg 74%
    18:00 +29°C° 0.1 mm 3 mps 757 mmHg 85%
    19:00 +28°C° 0.4 mm 3 mps 758 mmHg 88%
    20:00 +27°C° 0.4 mm 3 mps 758 mmHg 90%
    21:00 +27°C° 0.4 mm 3 mps 758 mmHg 92%
    22:00 +27°C° 2 mm 2 mps 758 mmHg 94%
    23:00 +26°C° 2 mm 2 mps 758 mmHg 96%

    Tomorrow, 22 August, Tuesday

    Time Temperature Precipitation Wind Pressure Humidity
    00:00 +26°C° 2 mm 2 mps 758 mmHg 98%
    01:00 +26°C° 1.1 mm 2 mps 758 mmHg 98%
    02:00 +26°C° 1.1 mm 2 mps 758 mmHg 99%
    03:00 +26°C° 1.1 mm 2 mps 757 mmHg 99%
    04:00 +26°C° 0.5 mm 2 mps 757 mmHg 99%
    05:00 +25°C° 0.5 mm 2 mps 757 mmHg 99%
    06:00 +25°C° 0.5 mm 2 mps 758 mmHg 99%
    07:00 +27°C° 0.6 mm 2 mps 758 mmHg 92%
    08:00 +29°C° 0.6 mm 2 mps 758 mmHg 84%
    09:00 +31°C° 0.6 mm 2 mps 759 mmHg 77%
    10:00 +32°C° 0.3 mm 2 mps 758 mmHg 72%
    11:00 +35°C° 0.3 mm 2 mps 758 mmHg 67%
    12:00 +36°C° 0.3 mm 3 mps 758 mmHg 62%
    13:00 +34°C° 0.8 mm 3 mps 757 mmHg 71%
    14:00 +33°C° 0.8 mm 4 mps 757 mmHg 80%
    15:00 +30°C° 0.8 mm 4 mps 756 mmHg 89%
    16:00 +29°C° 0.8 mm 4 mps 757 mmHg 92%
    17:00 +28°C° 0.8 mm 4 mps 757 mmHg 94%
    18:00 +27°C° 0.8 mm 4 mps 757 mmHg 96%
    19:00 +27°C° 0.7 mm 4 mps 757 mmHg 97%
    20:00 +27°C° 0.7 mm 4 mps 758 mmHg 97%
    21:00 +27°C° 0.7 mm 4 mps 758 mmHg 97%
    22:00 +27°C° 0.8 mm 4 mps 758 mmHg 97%
    23:00 +27°C° 0.8 mm 4 mps 758 mmHg 98%

    Day after tomorrow, 23 August, Wednesday

    Time Temperature Precipitation Wind Pressure Humidity
    00:00 +27°C° 0.8 mm 4 mps 758 mmHg 98%
    01:00 +26°C° 1.5 mm 4 mps 757 mmHg 98%
    02:00 +26°C° 1.5 mm 3 mps 757 mmHg 98%
    03:00 +26°C° 1.5 mm 3 mps 757 mmHg 99%
    04:00 +26°C° 0.3 mm 3 mps 757 mmHg 99%
    05:00 +26°C° 0.3 mm 2 mps 757 mmHg 99%
    06:00 +26°C° 0.3 mm 2 mps 757 mmHg 99%
    07:00 +27°C° 0.1 mm 2 mps 757 mmHg 96%
    08:00 +28°C° 0.1 mm 1 mps 758 mmHg 93%
    09:00 +29°C° 0.1 mm 1 mps 758 mmHg 91%
    10:00 +31°C° 0 mm 1 mps 758 mmHg 80%
    11:00 +32°C° 0 mm 1 mps 758 mmHg 69%
    12:00 +34°C° 0 mm 1 mps 757 mmHg 57%
    13:00 +35°C° 0 mm 2 mps 756 mmHg 59%
    14:00 +35°C° 0 mm 2 mps 756 mmHg 61%
    15:00 +34°C° 0 mm 3 mps 755 mmHg 63%
    16:00 +33°C° 0 mm 3 mps 755 mmHg 70%
    17:00 +31°C° 0 mm 3 mps 755 mmHg 77%
    18:00 +30°C° 0 mm 3 mps 755 mmHg 85%
    19:00 +29°C° 0.6 mm 4 mps 756 mmHg 89%
    20:00 +28°C° 0.6 mm 4 mps 756 mmHg 94%
    21:00 +27°C° 0.6 mm 4 mps 757 mmHg 98%
    22:00 +27°C° 0.3 mm 4 mps 757 mmHg 98%
    23:00 +27°C° 0.3 mm 4 mps 757 mmHg 98%

    24 August, Thursday

    Time Temperature Precipitation Wind Pressure Humidity
    00:00 +27°C° 0.3 mm 4 mps 756 mmHg 98%
    01:00 +27°C° 0.3 mm 4 mps 756 mmHg 98%
    02:00 +27°C° 0.3 mm 4 mps 756 mmHg 98%
    03:00 +27°C° 0.3 mm 4 mps 755 mmHg 98%
    04:00 +27°C° 0.6 mm 4 mps 755 mmHg 98%
    05:00 +27°C° 0.6 mm 4 mps 756 mmHg 98%
    06:00 +27°C° 0.6 mm 4 mps 756 mmHg 98%
    07:00 +28°C° 0.3 mm 4 mps 756 mmHg 95%
    08:00 +29°C° 0.3 mm 4 mps 756 mmHg 91%
    09:00 +30°C° 0.3 mm 4 mps 757 mmHg 88%
    10:00 +32°C° 0.2 mm 4 mps 757 mmHg 81%
    11:00 +33°C° 0.2 mm 4 mps 756 mmHg 73%
    12:00 +34°C° 0.2 mm 4 mps 756 mmHg 66%
    13:00 +34°C° 0 mm 4 mps 755 mmHg 66%
    14:00 +34°C° 0 mm 4 mps 755 mmHg 66%
    15:00 +34°C° 0 mm 4 mps 754 mmHg 66%
    16:00 +33°C° 0 mm 4 mps 754 mmHg 73%
    17:00 +32°C° 0 mm 4 mps 755 mmHg 79%
    18:00 +30°C° 0 mm 4 mps 755 mmHg 86%
    19:00 +29°C° 0.4 mm 5 mps 755 mmHg 90%
    20:00 +28°C° 0.4 mm 5 mps 756 mmHg 94%
    21:00 +28°C° 0.4 mm 6 mps 756 mmHg 98%
    22:00 +28°C° 1 mm 6 mps 756 mmHg 98%
    23:00 +27°C° 1 mm 6 mps 756 mmHg 97%

    25 August, Friday

    Time Temperature Precipitation Wind Pressure Humidity
    00:00 +27°C° 1 mm 6 mps 756 mmHg 97%
    01:00 +27°C° 0.3 mm 6 mps 755 mmHg 97%
    02:00 +27°C° 0.3 mm 6 mps 755 mmHg 96%
    03:00 +27°C° 0.3 mm 6 mps 755 mmHg 95%
    04:00 +28°C° 0.3 mm 6 mps 755 mmHg 94%
    05:00 +28°C° 0.3 mm 6 mps 756 mmHg 93%
    06:00 +28°C° 0.3 mm 6 mps 756 mmHg 92%
    07:00 +30°C° 0.2 mm 6 mps 756 mmHg 83%
    08:00 +32°C° 0.2 mm 6 mps 757 mmHg 74%
    09:00 +34°C° 0.2 mm 6 mps 757 mmHg 66%
    10:00 +35°C° 0 mm 6 mps 757 mmHg 62%
    11:00 +35°C° 0 mm 6 mps 757 mmHg 58%
    12:00 +36°C° 0 mm 6 mps 757 mmHg 54%
    13:00 +36°C° 0 mm 6 mps 756 mmHg 55%
    14:00 +36°C° 0 mm 6 mps 756 mmHg 57%
    15:00 +35°C° 0 mm 6 mps 755 mmHg 58%
    16:00 +34°C° 0.5 mm 6 mps 756 mmHg 66%
    17:00 +32°C° 0.5 mm 6 mps 756 mmHg 74%
    18:00 +29°C° 0.5 mm 7 mps 756 mmHg 82%
    19:00 +29°C° 2.4 mm 7 mps 757 mmHg 87%
    20:00 +28°C° 2.4 mm 7 mps 757 mmHg 91%
    21:00 +27°C° 2.4 mm 7 mps 758 mmHg 96%
    22:00 +27°C° 3.2 mm 7 mps 757 mmHg 96%
    23:00 +27°C° 3.2 mm 7 mps 757 mmHg 96%

    26 August, Saturday

    Time Temperature Precipitation Wind Pressure Humidity
    00:00 +27°C° 3.2 mm 7 mps 757 mmHg 95%
    01:00 +27°C° 0.6 mm 7 mps 757 mmHg 95%
    02:00 +27°C° 0.6 mm 7 mps 757 mmHg 94%
    03:00 +28°C° 0.6 mm 7 mps 757 mmHg 94%
    04:00 +28°C° 0.1 mm 6 mps 757 mmHg 93%
    05:00 +28°C° 0.1 mm 6 mps 757 mmHg 93%
    06:00 +28°C° 0.1 mm 6 mps 758 mmHg 92%
    07:00 +30°C° 0.3 mm 6 mps 758 mmHg 83%
    08:00 +32°C° 0.3 mm 6 mps 758 mmHg 74%
    09:00 +34°C° 0.3 mm 6 mps 759 mmHg 65%
    10:00 +35°C° 0 mm 5 mps 759 mmHg 60%
    11:00 +36°C° 0 mm 5 mps 758 mmHg 56%
    12:00 +37°C° 0 mm 5 mps 758 mmHg 52%
    13:00 +36°C° 0 mm 5 mps 758 mmHg 53%
    14:00 +36°C° 0 mm 5 mps 757 mmHg 54%
    15:00 +36°C° 0 mm 6 mps 756 mmHg 56%
    16:00 +34°C° 0 mm 6 mps 757 mmHg 64%
    17:00 +32°C° 0 mm 5 mps 757 mmHg 72%
    18:00 +30°C° 0 mm 5 mps 757 mmHg 81%
    19:00 +29°C° 0.2 mm 5 mps 758 mmHg 85%
    20:00 +29°C° 0.2 mm 6 mps 758 mmHg 89%
    21:00 +28°C° 0.2 mm 6 mps 759 mmHg 93%
    22:00 +28°C° 0.5 mm 6 mps 758 mmHg 94%
    23:00 +28°C° 0.5 mm 6 mps 758 mmHg 94%
    Show more